Regional Weather Roundup
Issued by NWS

Home | Current Version | Previous Version | Graphics & Text | Print | Product List | Glossary On
Versions: 1 2 3 4 5 6 7 8 9 10 11 12 13 14 15 16 17 18 19 20 21 22 23 24 25 26 27 28 29 30 31 32 33 34 35 36 37 38 39 40 41 42 43 44 45 46 47 48 49 50
000
ASUS45 KBOI 231010
RWRID

IDAHO REGIONAL WEATHER ROUNDUP
NATIONAL WEATHER SERVICE BOISE ID
300 AM MST TUE JAN 23 2018

NOTE: "FAIR" INDICATES FEW OR NO CLOUDS BELOW 12000 FEET
WITH NO SIGNIFICANT WEATHER AND/OR OBSTRUCTIONS TO VISIBILITY

IDZ012-014-231100-
SOUTHWEST IDAHO


CITY           SKY/WX    TMP DP  RH WIND       PRES   REMARKS
BOISE          CLEAR     30  26  85 SE8       30.31S WCI  22
CALDWELL       CLEAR     27  25  92 E3        30.33S
MOUNTAIN HOME  CLEAR     25  25 100 CALM      30.32S
$$

IDZ016-017-231100-
SOUTHCENTRAL IDAHO


CITY           SKY/WX    TMP DP  RH WIND       PRES   REMARKS
BURLEY         CLEAR     26  21  81 SW6       30.29R WCI  19
JEROME         CLEAR     27  22  81 CALM      30.30S
TWIN FALLS     CLEAR     26  22  84 S9        30.30S WCI  17
$$

IDZ019>023-231100-
SOUTHEAST IDAHO


CITY           SKY/WX    TMP DP  RH WIND       PRES   REMARKS
IDAHO FALLS    CLOUDY    26  24  92 NE5       30.29R WCI  20
POCATELLO      PTCLDY    30  24  78 SW13      30.31R WCI  20
REXBURG        CLOUDY    23  23 100 CALM      30.28R
$$

IDZ006-010-011-018-031-032-231100-
CENTRAL IDAHO MOUNTAINS


CITY           SKY/WX    TMP DP  RH WIND       PRES   REMARKS
MCCALL         FOG       17  15  92 CALM      30.23R VSB<1/4
HAILEY         CLEAR     18  10  73 NW10      30.27S WCI   6
STANLEY          N/A      6   2  83 CALM      30.25S
SALMON         CLOUDY    19  17  92 CALM      30.31R
CHALLIS        FOG       19  18  95 CALM      30.26F VSB 1/4
$$

IDZ002-004-006-007-026-231100-
NORTHERN IDAHO


CITY           SKY/WX    TMP DP  RH WIND       PRES   REMARKS
LEWISTON       PTCLDY    31  29  92 SE3       30.29S
LOWELL           N/A     35  34  96 CALM      30.36R
COEUR D`ALENE  PTCLDY    27  25  92 CALM      30.26R
MULLAN PASS    CLOUDY    20  19  96 VRB5      30.13R WCI  13
$$



USA.gov is the U.S. government's official web portal to all federal, state and local government web resources and services.